Volver al catálogo

SL-8 R/B

ActivoPO
NORAD 15506·ROCKET BODY·🇷🇺 Russia

Lanzado Feb 1, 1985 desde Plesetsk Cosmodrome

Loading…

Próximos Pases (próximas 24 horas)

TLE

ActualizadoSource: Space-Track

Época: Sep 14, 2026, 15:12 UTC

1 15506U 85011B   26257.63346422  .00000103  00000-0  89531-4 0  9998
2 15506  82.9188 306.7915 0035578 332.4372 192.9161 13.76529735 89574

Sigue SL-8 R/B en tiempo real con AllMySat

Download on the App Store